| time (UTC) | temp C | wind direction | speed KPH | gust KPH | rain 1hr cm | rain 24hr cm | rain mn cm | humidity % | barometer mb |
| 20260506212005 | 7 | 121 | 4.8 | 4.8 | 0.00 | 0.00 | 0.00 | 96 | 1005.8 |
| 20260506211507 | 7 | 68 | 4.8 | 8.0 | 0.00 | 0.00 | 0.00 | 96 | 1005.8 |
| 20260506211008 | 7 | 105 | 3.2 | 8.0 | 0.00 | 0.00 | 0.00 | 96 | 1005.8 |
| 20260506210508 | 7 | 288 | 0.0 | 6.4 | 0.00 | 0.00 | 0.00 | 96 | 1005.8 |
| 20260506210006 | 7 | 71 | 4.8 | 6.4 | 0.00 | 0.00 | 0.00 | 96 | 1005.4 |
| 20260506205509 | 7 | 56 | 6.4 | 9.7 | 0.00 | 0.00 | 0.00 | 96 | 1005.4 |
| 20260506205011 | 7 | 73 | 0.0 | 8.0 | 0.00 | 0.00 | 0.00 | 96 | 1005.4 |
| 20260506204507 | 7 | 57 | 8.0 | 11.3 | 0.00 | 0.00 | 0.00 | 96 | 1005.4 |
| 20260506204006 | 7 | 51 | 6.4 | 8.0 | 0.00 | 0.00 | 0.00 | 96 | 1005.4 |
| 20260506203508 | 7 | 67 | 4.8 | 9.7 | 0.00 | 0.00 | 0.00 | 96 | 1005.4 |
| 20260506203008 | 7 | 91 | 8.0 | 9.7 | 0.00 | 0.00 | 0.00 | 96 | 1005.8 |
| 20260506202507 | 7 | 114 | 3.2 | 9.7 | 0.00 | 0.00 | 0.00 | 96 | 1005.4 |
| 20260506202012 | 7 | 74 | 3.2 | 6.4 | 0.00 | 0.00 | 0.00 | 96 | 1005.8 |
| 20260506201507 | 7 | 74 | 4.8 | 8.0 | 0.00 | 0.00 | 0.00 | 96 | 1005.8 |
| 20260506201008 | 7 | 51 | 9.7 | 14.5 | 0.00 | 0.00 | 0.00 | 96 | 1005.1 |
| 20260506200508 | 7 | 83 | 8.0 | 9.7 | 0.00 | 0.00 | 0.00 | 96 | 1005.8 |
| 20260506200008 | 7 | 208 | 4.8 | 9.7 | 0.00 | 0.00 | 0.00 | 96 | 1005.8 |
| 20260506195508 | 7 | 35 | 9.7 | 16.1 | 0.00 | 0.00 | 0.00 | 96 | 1005.8 |
| 20260506195006 | 7 | 165 | 6.4 | 8.0 | 0.00 | 0.00 | 0.00 | 96 | 1005.8 |
| 20260506194507 | 7 | 58 | 8.0 | 12.9 | 0.00 | 0.00 | 0.00 | 96 | 1005.8 |
| 20260506194007 | 7 | 226 | 1.6 | 6.4 | 0.00 | 0.00 | 0.00 | 96 | 1005.8 |
| 20260506193508 | 7 | 46 | 11.3 | 11.3 | 0.00 | 0.00 | 0.00 | 96 | 1005.4 |
| 20260506193008 | 7 | 75 | 8.0 | 9.7 | 0.00 | 0.00 | 0.00 | 96 | 1005.4 |
| 20260506192508 | 7 | 49 | 9.7 | 12.9 | 0.00 | 0.00 | 0.00 | 95 | 1005.8 |
| 20260506192006 | 7 | 69 | 4.8 | 9.7 | 0.00 | 0.00 | 0.00 | 95 | 1005.8 |
| 20260506191508 | 7 | 82 | 6.4 | 9.7 | 0.00 | 0.00 | 0.00 | 95 | 1005.8 |
| 20260506191007 | 7 | 281 | 6.4 | 8.0 | 0.00 | 0.00 | 0.00 | 95 | 1005.8 |
| 20260506190508 | 8 | 76 | 6.4 | 11.3 | 0.00 | 0.00 | 0.00 | 96 | 1005.4 |
| 20260506190007 | 8 | 226 | 0.0 | 6.4 | 0.00 | 0.00 | 0.00 | 96 | 1005.8 |
| 20260506185506 | 8 | 44 | 8.0 | 9.7 | 0.00 | 0.00 | 0.00 | 96 | 1005.4 |
| 20260506185008 | 8 | 50 | 6.4 | 9.7 | 0.00 | 0.00 | 0.00 | 94 | 1005.4 |
| 20260506184508 | 10 | 100 | 8.0 | 12.9 | 0.00 | 0.00 | 0.00 | 93 | 1005.4 |
| 20260506184008 | 12 | 45 | 9.7 | 12.9 | 0.00 | 0.00 | 0.00 | 92 | 1005.1 |
| 20260506183507 | 15 | 45 | 9.7 | 11.3 | 0.00 | 0.00 | 0.00 | 95 | 1005.1 |
| 20260506183008 | 15 | 89 | 8.0 | 8.0 | 0.00 | 0.00 | 0.00 | 95 | 1005.1 |
| 20260506182505 | 15 | 314 | 3.2 | 6.4 | 0.00 | 0.00 | 0.00 | 95 | 1005.1 |
| 20260506182007 | 15 | 215 | 8.0 | 8.0 | 0.00 | 0.00 | 0.00 | 95 | 1005.1 |
| 20260506181508 | 15 | 204 | 3.2 | 8.0 | 0.00 | 0.00 | 0.00 | 94 | 1005.1 |
| 20260506181016 | 15 | 202 | 4.8 | 9.7 | 0.00 | 0.00 | 0.00 | 94 | 1005.1 |
| 20260506180508 | 15 | 246 | 1.6 | 9.7 | 0.00 | 0.00 | 0.00 | 94 | 1005.1 |
| 20260506180007 | 15 | 192 | 9.7 | 14.5 | 0.00 | 0.00 | 0.00 | 94 | 1005.1 |
| 20260506175507 | 15 | 172 | 9.7 | 9.7 | 0.00 | 0.00 | 0.00 | 94 | 1005.1 |
| 20260506175006 | 15 | 180 | 12.9 | 12.9 | 0.00 | 0.00 | 0.00 | 94 | 1005.1 |
| 20260506174508 | 15 | 168 | 6.4 | 9.7 | 0.00 | 0.00 | 0.00 | 94 | 1005.1 |
| 20260506174007 | 15 | 180 | 6.4 | 11.3 | 0.00 | 0.00 | 0.00 | 94 | 1005.1 |
| 20260506173508 | 15 | 215 | 3.2 | 6.4 | 0.00 | 0.00 | 0.00 | 94 | 1005.4 |
| 20260506173008 | 15 | 214 | 3.2 | 8.0 | 0.00 | 0.00 | 0.00 | 95 | 1005.1 |
| 20260506172507 | 15 | 209 | 6.4 | 8.0 | 0.00 | 0.00 | 0.00 | 95 | 1005.4 |
| 20260506172007 | 15 | 295 | 1.6 | 4.8 | 0.00 | 0.00 | 0.00 | 94 | 1005.4 |
| 20260506171508 | 15 | 205 | 4.8 | 6.4 | 0.00 | 0.00 | 0.00 | 95 | 1005.4 |
| 20260506171008 | 15 | 200 | 4.8 | 4.8 | 0.00 | 0.00 | 0.00 | 94 | 1005.8 |
| 20260506170508 | 15 | 147 | 3.2 | 4.8 | 0.00 | 0.00 | 0.00 | 94 | 1005.8 |
| 20260506170009 | 14 | 246 | 4.8 | 6.4 | 0.00 | 0.00 | 0.00 | 95 | 1005.8 |
| 20260506165508 | 14 | 324 | 0.0 | 4.8 | 0.00 | 0.00 | 0.00 | 95 | 1006.1 |
| 20260506165009 | 14 | 309 | 3.2 | 6.4 | 0.00 | 0.00 | 0.00 | 95 | 1006.1 |
| 20260506164508 | 14 | 178 | 3.2 | 6.4 | 0.00 | 0.00 | 0.00 | 95 | 1006.1 |
| 20260506164009 | 14 | 226 | 3.2 | 8.0 | 0.00 | 0.00 | 0.00 | 95 | 1006.1 |
| 20260506163508 | 13 | 252 | 1.6 | 6.4 | 0.00 | 0.00 | 0.00 | 96 | 1006.1 |
| 20260506163008 | 13 | 261 | 1.6 | 4.8 | 0.00 | 0.00 | 0.00 | 96 | 1006.1 |
| 20260506162508 | 14 | 168 | 1.6 | 4.8 | 0.00 | 0.00 | 0.00 | 96 | 1006.1 |
| 20260506162008 | 14 | 315 | 3.2 | 4.8 | 0.00 | 0.00 | 0.00 | 96 | 1006.4 |
| 20260506161508 | 14 | 339 | 3.2 | 4.8 | 0.00 | 0.00 | 0.00 | 96 | 1006.1 |
| 20260506161006 | 13 | 50 | 0.0 | 3.2 | 0.00 | 0.00 | 0.00 | 96 | 1006.4 |
| 20260506160510 | 13 | 359 | 1.6 | 4.8 | 0.00 | 0.00 | 0.00 | 95 | 1006.1 |
| 20260506160007 | 13 | 323 | 0.0 | 4.8 | 0.00 | 0.00 | 0.00 | 95 | 1006.4 |
| 20260506155508 | 13 | 344 | 1.6 | 4.8 | 0.00 | 0.00 | 0.00 | 95 | 1006.8 |
| 20260506155008 | 13 | 344 | 0.0 | 4.8 | 0.00 | 0.00 | 0.00 | 96 | 1006.4 |
| 20260506154508 | 13 | 352 | 3.2 | 4.8 | 0.00 | 0.00 | 0.00 | 96 | 1006.4 |
| 20260506154008 | 13 | 332 | 3.2 | 6.4 | 0.00 | 0.00 | 0.00 | 95 | 1006.4 |
| 20260506153509 | 13 | 333 | 1.6 | 3.2 | 0.00 | 0.00 | 0.00 | 95 | 1006.8 |
| 20260506153008 | 13 | 81 | 4.8 | 4.8 | 0.00 | 0.00 | 0.00 | 95 | 1006.8 |
| 20260506152508 | 13 | 308 | 3.2 | 3.2 | 0.00 | 0.00 | 0.00 | 95 | 1006.8 |
| 20260506152007 | 13 | 85 | 0.0 | 4.8 | 0.00 | 0.00 | 0.00 | 95 | 1006.8 |
| 20260506151507 | 13 | 21 | 0.0 | 4.8 | 0.00 | 0.00 | 0.00 | 95 | 1007.1 |
| 20260506151008 | 13 | 294 | 1.6 | 3.2 | 0.00 | 0.00 | 0.00 | 95 | 1006.8 |
| 20260506150508 | 13 | 94 | 3.2 | 4.8 | 0.00 | 0.00 | 0.00 | 95 | 1007.1 |
| 20260506150007 | 13 | 122 | 1.6 | 4.8 | 0.00 | 0.00 | 0.00 | 95 | 1007.1 |
| 20260506145508 | 13 | 300 | 0.0 | 4.8 | 0.00 | 0.00 | 0.00 | 95 | 1007.5 |
| 20260506145007 | 13 | 23 | 3.2 | 4.8 | 0.00 | 0.00 | 0.00 | 94 | 1007.5 |
| 20260506144507 | 13 | 94 | 0.0 | 4.8 | 0.00 | 0.00 | 0.00 | 94 | 1007.5 |
| 20260506144007 | 13 | 159 | 1.6 | 6.4 | 0.00 | 0.00 | 0.00 | 94 | 1007.5 |
| 20260506143507 | 13 | 153 | 3.2 | 3.2 | 0.00 | 0.00 | 0.00 | 94 | 1007.8 |
| 20260506143008 | 13 | 155 | 4.8 | 4.8 | 0.00 | 0.00 | 0.00 | 94 | 1007.8 |
| 20260506142508 | 13 | 162 | 3.2 | 4.8 | 0.00 | 0.00 | 0.00 | 94 | 1007.8 |
| 20260506142008 | 13 | 128 | 0.0 | 4.8 | 0.00 | 0.00 | 0.00 | 94 | 1007.8 |
| 20260506141509 | 13 | 198 | 0.0 | 4.8 | 0.00 | 0.00 | 0.00 | 95 | 1007.5 |
| 20260506141007 | 13 | 133 | 0.0 | 4.8 | 0.00 | 0.00 | 0.00 | 96 | 1007.5 |
| 20260506140509 | 13 | 158 | 4.8 | 6.4 | 0.00 | 0.00 | 0.00 | 96 | 1007.5 |
| 20260506140008 | 13 | 231 | 1.6 | 3.2 | 0.00 | 0.00 | 0.00 | 96 | 1007.5 |
| 20260506135508 | 13 | 103 | 0.0 | 4.8 | 0.00 | 0.00 | 0.00 | 97 | 1007.5 |
| 20260506135008 | 13 | 153 | 0.0 | 4.8 | 0.00 | 0.00 | 0.00 | 97 | 1007.5 |
| 20260506134507 | 13 | 187 | 1.6 | 4.8 | 0.00 | 0.00 | 0.00 | 97 | 1007.5 |
| 20260506133542 | 13 | 311 | 0.0 | 3.2 | 0.00 | 0.00 | 0.00 | 97 | 1007.5 |
| 20260506133008 | 13 | 115 | 0.0 | 3.2 | 0.00 | 0.00 | 0.00 | 97 | 1007.5 |
| 20260506132507 | 13 | 22 | 1.6 | 6.4 | 0.00 | 0.00 | 0.00 | 97 | 1007.1 |
| 20260506132009 | 13 | 47 | 3.2 | 4.8 | 0.00 | 0.00 | 0.00 | 97 | 1007.1 |
| 20260506131508 | 13 | 56 | 3.2 | 4.8 | 0.00 | 0.00 | 0.00 | 97 | 1007.1 |
| 20260506131007 | 13 | 48 | 4.8 | 6.4 | 0.00 | 0.00 | 0.00 | 97 | 1007.5 |
| 20260506130507 | 13 | 29 | 1.6 | 4.8 | 0.00 | 0.00 | 0.00 | 97 | 1007.5 |
| 20260506130009 | 13 | 48 | 3.2 | 4.8 | 0.00 | 0.00 | 0.00 | 97 | 1007.5 |
| 20260506125507 | 13 | 39 | 3.2 | 4.8 | 0.00 | 0.00 | 0.00 | 97 | 1007.8 |
| 20260506125007 | 12 | 47 | 3.2 | 4.8 | 0.00 | 0.00 | 0.00 | 97 | 1007.8 |
| 20260506124508 | 12 | 67 | 3.2 | 4.8 | 0.00 | 0.00 | 0.00 | 97 | 1007.8 |
| 20260506124008 | 12 | 64 | 3.2 | 4.8 | 0.00 | 0.00 | 0.00 | 97 | 1008.1 |
| 20260506123506 | 12 | 51 | 4.8 | 4.8 | 0.00 | 0.00 | 0.00 | 97 | 1008.1 |
| 20260506123008 | 12 | 86 | 0.0 | 3.2 | 0.00 | 0.00 | 0.00 | 97 | 1008.1 |
| 20260506122508 | 12 | 39 | 1.6 | 3.2 | 0.00 | 0.00 | 0.00 | 96 | 1008.1 |
| 20260506122007 | 12 | 73 | 3.2 | 4.8 | 0.00 | 0.00 | 0.00 | 96 | 1008.1 |
| 20260506121508 | 12 | 31 | 1.6 | 4.8 | 0.00 | 0.00 | 0.00 | 96 | 1007.8 |
| 20260506121007 | 12 | 49 | 3.2 | 3.2 | 0.00 | 0.00 | 0.00 | 96 | 1007.5 |
| 20260506120507 | 12 | 46 | 3.2 | 6.4 | 0.00 | 0.00 | 0.00 | 96 | 1007.8 |
| 20260506120007 | 12 | 93 | 0.0 | 4.8 | 0.00 | 0.00 | 0.00 | 96 | 1007.5 |
| 20260506115507 | 12 | 8 | 3.2 | 3.2 | 0.00 | 0.00 | 0.00 | 96 | 1007.5 |
| 20260506115009 | 12 | 51 | 4.8 | 6.4 | 0.00 | 0.00 | 0.00 | 96 | 1007.1 |
| 20260506114508 | 12 | 54 | 4.8 | 6.4 | 0.00 | 0.00 | 0.00 | 96 | 1007.1 |
| 20260506114008 | 12 | 51 | 6.4 | 6.4 | 0.00 | 0.00 | 0.00 | 96 | 1007.1 |
| 20260506113507 | 12 | 41 | 4.8 | 6.4 | 0.00 | 0.00 | 0.00 | 96 | 1007.5 |
| 20260506113006 | 11 | 52 | 6.4 | 6.4 | 0.00 | 0.00 | 0.00 | 96 | 1007.5 |
| 20260506112508 | 11 | 69 | 4.8 | 6.4 | 0.00 | 0.00 | 0.00 | 96 | 1007.5 |
| 20260506112007 | 12 | 57 | 4.8 | 4.8 | 0.00 | 0.00 | 0.00 | 96 | 1007.5 |
| 20260506111507 | 12 | 50 | 1.6 | 4.8 | 0.00 | 0.00 | 0.00 | 96 | 1007.8 |
| 20260506111007 | 11 | 38 | 3.2 | 6.4 | 0.00 | 0.00 | 0.00 | 96 | 1007.5 |
| 20260506110508 | 11 | 30 | 8.0 | 9.7 | 0.00 | 0.00 | 0.00 | 96 | 1007.5 |
| 20260506110008 | 11 | 75 | 3.2 | 4.8 | 0.00 | 0.00 | 0.00 | 96 | 1007.5 |
| 20260506105508 | 11 | 42 | 3.2 | 4.8 | 0.00 | 0.00 | 0.00 | 96 | 1007.5 |
| 20260506105007 | 11 | 74 | 1.6 | 3.2 | 0.00 | 0.00 | 0.00 | 96 | 1007.5 |
| 20260506104508 | 11 | 46 | 6.4 | 6.4 | 0.00 | 0.00 | 0.00 | 96 | 1007.1 |
| 20260506104005 | 11 | 300 | 1.6 | 4.8 | 0.00 | 0.00 | 0.00 | 96 | 1007.5 |
| 20260506103507 | 11 | 38 | 1.6 | 4.8 | 0.00 | 0.00 | 0.00 | 96 | 1007.1 |
| 20260506103008 | 11 | 21 | 0.0 | 4.8 | 0.00 | 0.00 | 0.00 | 96 | 1007.1 |
| 20260506102507 | 11 | 58 | 3.2 | 6.4 | 0.00 | 0.00 | 0.00 | 96 | 1006.8 |
| 20260506102007 | 11 | 4 | 3.2 | 3.2 | 0.00 | 0.00 | 0.00 | 96 | 1007.1 |
| 20260506101507 | 11 | 68 | 4.8 | 6.4 | 0.00 | 0.00 | 0.00 | 96 | 1007.1 |
| 20260506101007 | 11 | 47 | 4.8 | 8.0 | 0.00 | 0.00 | 0.00 | 96 | 1006.8 |
| 20260506100507 | 11 | 39 | 3.2 | 8.0 | 0.00 | 0.00 | 0.00 | 96 | 1007.1 |
| 20260506100008 | 11 | 41 | 6.4 | 6.4 | 0.00 | 0.00 | 0.00 | 96 | 1007.1 |
| 20260506095508 | 12 | 95 | 3.2 | 4.8 | 0.00 | 0.00 | 0.00 | 95 | 1007.1 |
| 20260506095008 | 11 | 351 | 1.6 | 4.8 | 0.00 | 0.00 | 0.00 | 96 | 1007.1 |
| 20260506094509 | 11 | 67 | 4.8 | 6.4 | 0.00 | 0.00 | 0.00 | 95 | 1006.8 |
| 20260506094010 | 11 | 76 | 4.8 | 4.8 | 0.00 | 0.00 | 0.00 | 95 | 1006.8 |
| 20260506093508 | 11 | 28 | 6.4 | 9.7 | 0.00 | 0.00 | 0.00 | 96 | 1006.8 |
| 20260506093007 | 11 | 69 | 1.6 | 6.4 | 0.00 | 0.00 | 0.00 | 96 | 1007.1 |
| 20260506092507 | 12 | 72 | 3.2 | 6.4 | 0.00 | 0.00 | 0.00 | 95 | 1007.1 |
| 20260506092007 | 12 | 73 | 1.6 | 6.4 | 0.00 | 0.00 | 0.00 | 95 | 1007.1 |
| 20260506091507 | 11 | 34 | 4.8 | 6.4 | 0.00 | 0.00 | 0.00 | 95 | 1007.1 |
| 20260506091007 | 11 | 53 | 3.2 | 8.0 | 0.00 | 0.00 | 0.00 | 95 | 1006.8 |
| 20260506090507 | 11 | 22 | 3.2 | 4.8 | 0.00 | 0.00 | 0.00 | 96 | 1007.1 |
| 20260506090006 | 12 | 44 | 3.2 | 3.2 | 0.00 | 0.00 | 0.00 | 96 | 1007.5 |
| 20260506085507 | 12 | 68 | 4.8 | 4.8 | 0.00 | 0.00 | 0.00 | 95 | 1007.1 |
| 20260506085006 | 12 | 35 | 4.8 | 6.4 | 0.00 | 0.00 | 0.00 | 95 | 1007.1 |
| 20260506084508 | 12 | 52 | 4.8 | 6.4 | 0.00 | 0.00 | 0.00 | 95 | 1007.1 |
| 20260506084008 | 12 | 49 | 4.8 | 6.4 | 0.00 | 0.00 | 0.00 | 95 | 1007.5 |
| 20260506083507 | 12 | 32 | 3.2 | 4.8 | 0.00 | 0.00 | 0.00 | 95 | 1007.5 |
| 20260506083005 | 12 | 65 | 4.8 | 4.8 | 0.00 | 0.00 | 0.00 | 95 | 1007.5 |
| 20260506082507 | 12 | 33 | 3.2 | 4.8 | 0.00 | 0.00 | 0.00 | 95 | 1007.5 |
| 20260506082008 | 12 | 68 | 4.8 | 6.4 | 0.00 | 0.00 | 0.00 | 95 | 1007.1 |
| 20260506081508 | 12 | 46 | 3.2 | 4.8 | 0.00 | 0.00 | 0.00 | 95 | 1007.8 |
| 20260506081007 | 12 | 43 | 4.8 | 6.4 | 0.00 | 0.00 | 0.00 | 95 | 1007.5 |
| 20260506080508 | 12 | 36 | 3.2 | 4.8 | 0.00 | 0.00 | 0.00 | 95 | 1007.8 |
| 20260506073508 | 12 | 53 | 6.4 | 6.4 | 0.00 | 0.00 | 0.00 | 94 | 1007.8 |
| 20260506073008 | 12 | 31 | 4.8 | 4.8 | 0.00 | 0.00 | 0.00 | 94 | 1007.8 |
| 20260506072507 | 12 | 40 | 4.8 | 4.8 | 0.00 | 0.00 | 0.00 | 94 | 1007.5 |
| 20260506072008 | 12 | 57 | 3.2 | 6.4 | 0.00 | 0.00 | 0.00 | 94 | 1007.8 |
| 20260506071507 | 13 | 68 | 3.2 | 4.8 | 0.00 | 0.00 | 0.00 | 94 | 1007.5 |
| 20260506071006 | 13 | 54 | 3.2 | 4.8 | 0.00 | 0.00 | 0.00 | 94 | 1007.5 |
| 20260506070507 | 13 | 86 | 3.2 | 4.8 | 0.00 | 0.00 | 0.00 | 94 | 1007.5 |
| 20260506062508 | 13 | 43 | 3.2 | 4.8 | 0.00 | 0.00 | 0.00 | 93 | 1007.8 |
| 20260506062006 | 13 | 354 | 1.6 | 4.8 | 0.00 | 0.00 | 0.00 | 93 | 1007.8 |
| 20260506061507 | 13 | 8 | 3.2 | 4.8 | 0.00 | 0.00 | 0.00 | 93 | 1007.8 |
| 20260506061012 | 13 | 52 | 3.2 | 8.0 | 0.00 | 0.00 | 0.00 | 93 | 1007.8 |
| 20260506060508 | 13 | 29 | 6.4 | 8.0 | 0.00 | 0.00 | 0.00 | 93 | 1007.5 |
| 20260506051009 | 15 | 45 | 8.0 | 8.0 | 0.00 | 0.00 | 0.00 | 90 | 1008.1 |
| 20260506050507 | 15 | 52 | 4.8 | 6.4 | 0.00 | 0.00 | 0.00 | 89 | 1008.1 |
| 20260506045006 | 15 | 48 | 1.6 | 4.8 | 0.00 | 0.00 | 0.00 | 87 | 1008.8 |
| 20260506044505 | 15 | 7 | 1.6 | 6.4 | 0.00 | 0.00 | 0.00 | 86 | 1008.1 |
| 20260506044007 | 15 | 6 | 4.8 | 9.7 | 0.00 | 0.00 | 0.00 | 85 | 1008.1 |
| 20260506043507 | 15 | 69 | 6.4 | 8.0 | 0.00 | 0.00 | 0.00 | 82 | 1008.1 |
| 20260506043008 | 15 | 328 | 3.2 | 6.4 | 0.00 | 0.00 | 0.00 | 82 | 1008.1 |
| 20260506042505 | 15 | 27 | 3.2 | 6.4 | 0.00 | 0.00 | 0.00 | 82 | 1007.5 |
| 20260506042008 | 15 | 70 | 3.2 | 4.8 | 0.00 | 0.00 | 0.00 | 81 | 1007.8 |
| 20260506041513 | 15 | 24 | 3.2 | 3.2 | 0.00 | 0.00 | 0.00 | 82 | 1008.1 |
| 20260506041006 | 15 | 46 | 4.8 | 6.4 | 0.00 | 0.00 | 0.00 | 81 | 1008.1 |
| 20260506040506 | 16 | 61 | 3.2 | 4.8 | 0.00 | 0.00 | 0.00 | 79 | 1008.1 |
| 20260506040007 | 15 | 35 | 1.6 | 3.2 | 0.00 | 0.00 | 0.00 | 80 | 1007.8 |
| 20260506035505 | 15 | 354 | 0.0 | 3.2 | 0.00 | 0.00 | 0.00 | 81 | 1008.1 |
| 20260506035006 | 15 | 168 | 0.0 | 3.2 | 0.00 | 0.00 | 0.00 | 82 | 1008.1 |
| 20260506034506 | 15 | 32 | 1.6 | 4.8 | 0.00 | 0.00 | 0.00 | 84 | 1007.8 |
| 20260506034006 | 15 | 9 | 1.6 | 1.6 | 0.00 | 0.00 | 0.00 | 83 | 1007.8 |
| 20260506033507 | 16 | 37 | 0.0 | 1.6 | 0.00 | 0.00 | 0.00 | 80 | 1007.8 |
| 20260506033007 | 16 | 337 | 1.6 | 3.2 | 0.00 | 0.00 | 0.00 | 77 | 1007.5 |
| 20260506032507 | 16 | 317 | 1.6 | 3.2 | 0.00 | 0.00 | 0.00 | 76 | 1007.1 |
| 20260506032006 | 16 | 180 | 0.0 | 1.6 | 0.00 | 0.00 | 0.00 | 74 | 1007.5 |
| 20260506031507 | 16 | 308 | 3.2 | 4.8 | 0.00 | 0.00 | 0.00 | 73 | 1007.5 |
| 20260506031007 | 16 | 296 | 3.2 | 4.8 | 0.00 | 0.00 | 0.00 | 73 | 1007.5 |
| 20260506030508 | 17 | 184 | 0.0 | 4.8 | 0.00 | 0.00 | 0.00 | 73 | 1007.5 |
| 20260506030008 | 17 | 275 | 3.2 | 4.8 | 0.00 | 0.00 | 0.00 | 71 | 1007.5 |
| 20260506025507 | 17 | 298 | 3.2 | 4.8 | 0.00 | 0.00 | 0.00 | 72 | 1007.5 |
| 20260506025006 | 16 | 214 | 4.8 | 4.8 | 0.00 | 0.00 | 0.00 | 74 | 1007.5 |
| 20260506024506 | 16 | 156 | 1.6 | 4.8 | 0.00 | 0.00 | 0.00 | 73 | 1007.5 |
| 20260506024005 | 16 | 272 | 3.2 | 4.8 | 0.00 | 0.00 | 0.00 | 75 | 1007.5 |
| 20260506023506 | 17 | 186 | 0.0 | 3.2 | 0.00 | 0.00 | 0.00 | 71 | 1007.5 |
| 20260506023008 | 17 | 293 | 1.6 | 4.8 | 0.00 | 0.00 | 0.00 | 71 | 1007.5 |
| 20260506022508 | 17 | 191 | 1.6 | 3.2 | 0.00 | 0.00 | 0.00 | 69 | 1007.5 |
| 20260506022007 | 17 | 319 | 4.8 | 4.8 | 0.00 | 0.00 | 0.00 | 69 | 1007.1 |
| 20260506021507 | 17 | 250 | 1.6 | 6.4 | 0.00 | 0.00 | 0.00 | 70 | 1007.1 |
| 20260506021007 | 17 | 206 | 3.2 | 4.8 | 0.00 | 0.00 | 0.00 | 71 | 1007.1 |
| 20260506020508 | 17 | 146 | 0.0 | 3.2 | 0.00 | 0.00 | 0.00 | 69 | 1007.1 |
| 20260506020007 | 17 | 333 | 1.6 | 1.6 | 0.00 | 0.00 | 0.00 | 69 | 1007.1 |
| 20260506015506 | 17 | 269 | 1.6 | 6.4 | 0.00 | 0.00 | 0.00 | 70 | 1007.1 |
| 20260506015008 | 17 | 327 | 1.6 | 4.8 | 0.00 | 0.00 | 0.00 | 71 | 1007.1 |
| 20260506014507 | 17 | 294 | 4.8 | 6.4 | 0.00 | 0.00 | 0.00 | 70 | 1007.1 |
| 20260506014007 | 17 | 59 | 0.0 | 1.6 | 0.00 | 0.00 | 0.00 | 70 | 1006.8 |
| 20260506013505 | 17 | 230 | 0.0 | 4.8 | 0.00 | 0.00 | 0.00 | 69 | 1006.8 |
| 20260506013006 | 17 | 297 | 1.6 | 4.8 | 0.00 | 0.00 | 0.00 | 70 | 1007.1 |
| 20260506012508 | 17 | 211 | 0.0 | 4.8 | 0.00 | 0.00 | 0.00 | 70 | 1006.8 |
| 20260506012007 | 17 | 286 | 1.6 | 3.2 | 0.00 | 0.00 | 0.00 | 70 | 1006.8 |
| 20260506011506 | 17 | 198 | 1.6 | 8.0 | 0.00 | 0.00 | 0.00 | 70 | 1006.8 |
| 20260506011007 | 16 | 257 | 3.2 | 6.4 | 0.00 | 0.00 | 0.00 | 73 | 1006.8 |
| 20260506010507 | 17 | 37 | 0.0 | 4.8 | 0.00 | 0.00 | 0.00 | 71 | 1006.8 |
| 20260506010006 | 16 | 246 | 3.2 | 4.8 | 0.00 | 0.00 | 0.00 | 72 | 1006.8 |
| 20260506005506 | 16 | 356 | 1.6 | 3.2 | 0.00 | 0.00 | 0.00 | 73 | 1006.8 |
| 20260506005008 | 16 | 123 | 1.6 | 4.8 | 0.00 | 0.00 | 0.00 | 74 | 1006.4 |
| 20260506004507 | 15 | 327 | 1.6 | 4.8 | 0.00 | 0.00 | 0.00 | 77 | 1006.4 |
| 20260506004006 | 16 | 54 | 1.6 | 3.2 | 0.00 | 0.00 | 0.00 | 77 | 1006.4 |
| 20260506003507 | 16 | 59 | 3.2 | 3.2 | 0.00 | 0.00 | 0.00 | 76 | 1006.1 |
| 20260506003007 | 16 | 309 | 3.2 | 4.8 | 0.00 | 0.00 | 0.00 | 76 | 1006.1 |
| 20260506002507 | 16 | 296 | 3.2 | 4.8 | 0.00 | 0.00 | 0.00 | 76 | 1006.1 |
| 20260506002008 | 16 | 279 | 0.0 | 3.2 | 0.00 | 0.00 | 0.00 | 75 | 1005.8 |
| 20260506001507 | 16 | 319 | 4.8 | 6.4 | 0.00 | 0.00 | 0.00 | 73 | 1005.8 |
| 20260506001008 | 16 | 189 | 1.6 | 6.4 | 0.00 | 0.00 | 0.00 | 73 | 1005.8 |
| 20260506000508 | 16 | 40 | 3.2 | 3.2 | 0.00 | 0.00 | 0.00 | 75 | 1005.8 |
| 20260506000006 | 16 | 326 | 3.2 | 3.2 | 0.00 | 0.00 | 0.00 | 75 | 1006.1 |
| 20260505235507 | 16 | 334 | 3.2 | 4.8 | 0.00 | 0.00 | 0.00 | 75 | 1005.8 |
| 20260505235009 | 16 | 0 | 3.2 | 4.8 | 0.00 | 0.00 | 0.00 | 78 | 1005.8 |
| 20260505234505 | 16 | 319 | 3.2 | 3.2 | 0.00 | 0.00 | 0.00 | 79 | 1005.8 |
| 20260505234006 | 16 | 31 | 6.4 | 6.4 | 0.00 | 0.00 | 0.00 | 79 | 1005.8 |
| 20260505233506 | 16 | 346 | 1.6 | 3.2 | 0.00 | 0.00 | 0.00 | 80 | 1006.1 |
| 20260505233005 | 16 | 314 | 3.2 | 3.2 | 0.00 | 0.00 | 0.00 | 77 | 1006.4 |
| 20260505232505 | 16 | 323 | 3.2 | 4.8 | 0.00 | 0.00 | 0.00 | 77 | 1006.1 |
| 20260505232006 | 17 | 25 | 0.0 | 3.2 | 0.00 | 0.00 | 0.00 | 75 | 1006.1 |
| 20260505231507 | 17 | 66 | 1.6 | 4.8 | 0.00 | 0.00 | 0.00 | 73 | 1005.8 |
| 20260505231006 | 17 | 31 | 3.2 | 3.2 | 0.00 | 0.00 | 0.00 | 72 | 1005.8 |
| 20260505230508 | 17 | 346 | 3.2 | 3.2 | 0.00 | 0.00 | 0.00 | 73 | 1006.1 |
| 20260505230007 | 17 | 135 | 1.6 | 3.2 | 0.00 | 0.00 | 0.00 | 73 | 1005.8 |
| 20260505225508 | 17 | 187 | 3.2 | 4.8 | 0.00 | 0.00 | 0.00 | 72 | 1006.1 |
| 20260505225007 | 17 | 219 | 4.8 | 6.4 | 0.00 | 0.00 | 0.00 | 73 | 1006.1 |
| 20260505224506 | 17 | 119 | 4.8 | 4.8 | 0.00 | 0.00 | 0.00 | 76 | 1006.4 |
| 20260505224006 | 17 | 159 | 3.2 | 4.8 | 0.00 | 0.00 | 0.00 | 76 | 1006.1 |
| 20260505223508 | 17 | 128 | 1.6 | 4.8 | 0.00 | 0.00 | 0.00 | 80 | 1006.1 |
| 20260505223006 | 17 | 56 | 4.8 | 4.8 | 0.00 | 0.00 | 0.00 | 82 | 1006.1 |
| 20260505222507 | 16 | 8 | 3.2 | 6.4 | 0.00 | 0.00 | 0.00 | 86 | 1006.1 |
| 20260505222007 | 17 | 91 | 1.6 | 3.2 | 0.00 | 0.00 | 0.00 | 87 | 1005.8 |
| 20260505221507 | 17 | 266 | 0.0 | 1.6 | 0.00 | 0.00 | 0.00 | 86 | 1006.1 |
| 20260505221006 | 17 | 52 | 1.6 | 3.2 | 0.00 | 0.00 | 0.00 | 85 | 1006.1 |
| 20260505220505 | 17 | 317 | 4.8 | 4.8 | 0.00 | 0.00 | 0.00 | 87 | 1005.8 |
| 20260505220007 | 17 | 49 | 3.2 | 4.8 | 0.00 | 0.00 | 0.00 | 87 | 1005.4 |
| 20260505215513 | 17 | 59 | 4.8 | 8.0 | 0.00 | 0.00 | 0.00 | 87 | 1005.4 |
| 20260505215007 | 17 | 44 | 4.8 | 6.4 | 0.00 | 0.00 | 0.00 | 88 | 1005.8 |
| 20260505214507 | 17 | 62 | 4.8 | 4.8 | 0.00 | 0.00 | 0.00 | 87 | 1005.8 |
| 20260505214008 | 17 | 200 | 3.2 | 4.8 | 0.00 | 0.00 | 0.00 | 86 | 1005.8 |
| 20260505213508 | 17 | 26 | 3.2 | 3.2 | 0.00 | 0.00 | 0.00 | 86 | 1005.4 |
| 20260505213007 | 17 | 34 | 3.2 | 6.4 | 0.00 | 0.00 | 0.00 | 85 | 1005.4 |
| 20260505212508 | 17 | 28 | 3.2 | 4.8 | 0.00 | 0.00 | 0.00 | 82 | 1005.1 |